When you browse on this site, cookies collect data to enhance your experience and personalize the content and advertising you see.
Visit our Privacy Policy to learn more. By continuing to use the site, you agree to this use of cookies and data.
  • In Latvia
  • List of Countries
  • For 7 days
  • Water Temperature
  • Weather Map
  • Weather Widgets
  • user-avatar
    Login

    Hourly Weather Peredovoy

    Today, 18 August, Sunday

    Time Temperature Precipitation Wind Pressure Humidity
    00:00 +23°C° 0 mm 1 mps 741 mmHg 61%
    01:00 +23°C° 0 mm 1 mps 742 mmHg 61%
    02:00 +22°C° 0 mm 1 mps 742 mmHg 60%
    03:00 +21°C° 0 mm 2 mps 742 mmHg 59%
    04:00 +21°C° 0 mm 2 mps 742 mmHg 63%
    05:00 +22°C° 0 mm 1 mps 742 mmHg 68%
    06:00 +22°C° 0 mm 1 mps 743 mmHg 72%
    07:00 +23°C° 0 mm 1 mps 743 mmHg 68%
    08:00 +24°C° 0 mm 1 mps 743 mmHg 65%
    09:00 +26°C° 0 mm 1 mps 744 mmHg 62%
    10:00 +27°C° 0 mm 2 mps 744 mmHg 60%
    11:00 +28°C° 0 mm 2 mps 744 mmHg 58%
    12:00 +29°C° 0 mm 3 mps 744 mmHg 56%
    13:00 +30°C° 0.1 mm 3 mps 744 mmHg 55%
    14:00 +30°C° 0.1 mm 3 mps 744 mmHg 55%
    15:00 +30°C° 0.1 mm 3 mps 744 mmHg 55%
    16:00 +29°C° 0.4 mm 3 mps 744 mmHg 59%
    17:00 +28°C° 0.4 mm 2 mps 744 mmHg 63%
    18:00 +28°C° 0.4 mm 2 mps 744 mmHg 67%
    19:00 +27°C° 1.4 mm 2 mps 744 mmHg 72%
    20:00 +25°C° 1.4 mm 2 mps 744 mmHg 77%
    21:00 +24°C° 1.4 mm 2 mps 745 mmHg 83%
    22:00 +24°C° 0.2 mm 2 mps 745 mmHg 84%
    23:00 +23°C° 0.2 mm 2 mps 745 mmHg 85%

    Tomorrow, 19 August, Monday

    Time Temperature Precipitation Wind Pressure Humidity
    00:00 +23°C° 0.2 mm 2 mps 745 mmHg 87%
    01:00 +23°C° 0 mm 1 mps 745 mmHg 87%
    02:00 +22°C° 0 mm 1 mps 745 mmHg 87%
    03:00 +22°C° 0 mm 1 mps 745 mmHg 87%
    04:00 +22°C° 0 mm 1 mps 746 mmHg 85%
    05:00 +20°C° 0 mm 0 mps 746 mmHg 84%
    06:00 +20°C° 0 mm 0 mps 746 mmHg 82%
    07:00 +24°C° 0 mm 1 mps 746 mmHg 76%
    08:00 +25°C° 0 mm 1 mps 747 mmHg 71%
    09:00 +27°C° 0 mm 1 mps 747 mmHg 65%
    10:00 +28°C° 0 mm 2 mps 747 mmHg 61%
    11:00 +29°C° 0 mm 2 mps 747 mmHg 56%
    12:00 +30°C° 0 mm 2 mps 748 mmHg 52%
    13:00 +30°C° 0.1 mm 2 mps 748 mmHg 50%
    14:00 +31°C° 0.1 mm 2 mps 748 mmHg 49%
    15:00 +31°C° 0.1 mm 2 mps 748 mmHg 47%
    16:00 +30°C° 0 mm 3 mps 748 mmHg 55%
    17:00 +29°C° 0 mm 3 mps 748 mmHg 63%
    18:00 +27°C° 0 mm 3 mps 748 mmHg 70%
    19:00 +26°C° 0 mm 3 mps 748 mmHg 73%
    20:00 +25°C° 0 mm 3 mps 748 mmHg 76%
    21:00 +23°C° 0 mm 2 mps 748 mmHg 80%
    22:00 +22°C° 0 mm 3 mps 748 mmHg 80%
    23:00 +21°C° 0 mm 3 mps 749 mmHg 80%

    Day after tomorrow, 20 August, Tuesday

    Time Temperature Precipitation Wind Pressure Humidity
    00:00 +20°C° 0 mm 3 mps 749 mmHg 81%
    01:00 +20°C° 0 mm 3 mps 749 mmHg 82%
    02:00 +19°C° 0 mm 3 mps 749 mmHg 82%
    03:00 +19°C° 0 mm 3 mps 749 mmHg 83%
    04:00 +19°C° 0 mm 3 mps 749 mmHg 84%
    05:00 +19°C° 0 mm 3 mps 749 mmHg 85%
    06:00 +19°C° 0 mm 3 mps 749 mmHg 86%
    07:00 +20°C° 0 mm 4 mps 749 mmHg 80%
    08:00 +22°C° 0 mm 4 mps 750 mmHg 75%
    09:00 +25°C° 0 mm 4 mps 750 mmHg 69%
    10:00 +26°C° 0 mm 4 mps 750 mmHg 64%
    11:00 +27°C° 0 mm 4 mps 750 mmHg 60%
    12:00 +28°C° 0 mm 4 mps 750 mmHg 55%
    13:00 +29°C° 0 mm 4 mps 750 mmHg 54%
    14:00 +29°C° 0 mm 4 mps 750 mmHg 53%
    15:00 +29°C° 0 mm 4 mps 750 mmHg 52%
    16:00 +28°C° 0 mm 4 mps 750 mmHg 55%
    17:00 +27°C° 0 mm 3 mps 750 mmHg 58%
    18:00 +27°C° 0 mm 3 mps 750 mmHg 62%
    19:00 +25°C° 0 mm 3 mps 750 mmHg 66%
    20:00 +22°C° 0 mm 3 mps 750 mmHg 70%
    21:00 +21°C° 0 mm 4 mps 750 mmHg 74%
    22:00 +20°C° 0 mm 3 mps 750 mmHg 77%
    23:00 +20°C° 0 mm 3 mps 751 mmHg 80%

    21 August, Wednesday

    Time Temperature Precipitation Wind Pressure Humidity
    00:00 +19°C° 0 mm 3 mps 751 mmHg 83%
    01:00 +19°C° 0 mm 3 mps 751 mmHg 85%
    02:00 +18°C° 0 mm 3 mps 751 mmHg 88%
    03:00 +18°C° 0 mm 3 mps 751 mmHg 90%
    04:00 +18°C° 0 mm 3 mps 751 mmHg 90%
    05:00 +18°C° 0 mm 3 mps 751 mmHg 90%
    06:00 +17°C° 0 mm 3 mps 751 mmHg 90%
    07:00 +20°C° 0 mm 3 mps 751 mmHg 82%
    08:00 +22°C° 0 mm 3 mps 751 mmHg 74%
    09:00 +25°C° 0 mm 3 mps 752 mmHg 65%
    10:00 +26°C° 0 mm 4 mps 751 mmHg 60%
    11:00 +27°C° 0 mm 4 mps 751 mmHg 55%
    12:00 +29°C° 0 mm 4 mps 751 mmHg 49%
    13:00 +29°C° 0 mm 4 mps 751 mmHg 49%
    14:00 +29°C° 0 mm 4 mps 751 mmHg 49%
    15:00 +30°C° 0 mm 4 mps 751 mmHg 49%
    16:00 +29°C° 0 mm 3 mps 750 mmHg 53%
    17:00 +28°C° 0 mm 3 mps 750 mmHg 58%
    18:00 +28°C° 0 mm 3 mps 750 mmHg 63%
    19:00 +26°C° 0 mm 3 mps 750 mmHg 67%
    20:00 +25°C° 0 mm 2 mps 750 mmHg 72%
    21:00 +23°C° 0 mm 2 mps 750 mmHg 77%
    22:00 +23°C° 0 mm 2 mps 750 mmHg 80%
    23:00 +21°C° 0 mm 2 mps 750 mmHg 82%

    22 August, Thursday

    Time Temperature Precipitation Wind Pressure Humidity
    00:00 +21°C° 0 mm 2 mps 750 mmHg 85%
    01:00 +21°C° 0 mm 2 mps 750 mmHg 87%
    02:00 +20°C° 0 mm 2 mps 750 mmHg 89%
    03:00 +20°C° 0 mm 2 mps 750 mmHg 91%
    04:00 +20°C° 0 mm 2 mps 750 mmHg 91%
    05:00 +20°C° 0 mm 2 mps 750 mmHg 91%
    06:00 +20°C° 0 mm 2 mps 749 mmHg 91%
    07:00 +23°C° 0 mm 2 mps 749 mmHg 81%
    08:00 +25°C° 0 mm 2 mps 750 mmHg 72%
    09:00 +27°C° 0 mm 2 mps 750 mmHg 63%
    10:00 +28°C° 0 mm 2 mps 749 mmHg 59%
    11:00 +29°C° 0 mm 2 mps 749 mmHg 55%
    12:00 +30°C° 0 mm 2 mps 749 mmHg 51%
    13:00 +30°C° 0 mm 2 mps 749 mmHg 49%
    14:00 +31°C° 0 mm 2 mps 748 mmHg 46%
    15:00 +31°C° 0 mm 2 mps 748 mmHg 44%
    16:00 +30°C° 0 mm 1 mps 748 mmHg 47%
    17:00 +30°C° 0 mm 1 mps 748 mmHg 50%
    18:00 +29°C° 0 mm 1 mps 748 mmHg 53%
    19:00 +28°C° 0 mm 1 mps 748 mmHg 58%
    20:00 +26°C° 0 mm 2 mps 748 mmHg 63%
    21:00 +24°C° 0 mm 2 mps 748 mmHg 68%
    22:00 +24°C° 0 mm 2 mps 747 mmHg 69%
    23:00 +24°C° 0 mm 2 mps 747 mmHg 70%

    23 August, Friday

    Time Temperature Precipitation Wind Pressure Humidity
    00:00 +23°C° 0 mm 2 mps 747 mmHg 71%
    01:00 +23°C° 0 mm 1 mps 747 mmHg 71%
    02:00 +22°C° 0 mm 1 mps 747 mmHg 72%
    03:00 +22°C° 0 mm 1 mps 747 mmHg 72%
    04:00 +22°C° 0 mm 1 mps 747 mmHg 72%
    05:00 +22°C° 0 mm 1 mps 747 mmHg 72%
    06:00 +20°C° 0 mm 0 mps 747 mmHg 72%
    07:00 +22°C° 0 mm 0 mps 747 mmHg 66%
    08:00 +24°C° 0 mm 0 mps 747 mmHg 60%
    09:00 +26°C° 0 mm 0 mps 747 mmHg 54%
    10:00 +29°C° 0 mm 1 mps 747 mmHg 52%
    11:00 +30°C° 0 mm 1 mps 747 mmHg 49%
    12:00 +31°C° 0 mm 1 mps 747 mmHg 47%
    13:00 +31°C° 0.1 mm 2 mps 747 mmHg 48%
    14:00 +31°C° 0.1 mm 2 mps 747 mmHg 49%
    15:00 +30°C° 0.1 mm 2 mps 747 mmHg 50%
    16:00 +29°C° 0.5 mm 3 mps 747 mmHg 57%
    17:00 +27°C° 0.5 mm 4 mps 747 mmHg 64%
    18:00 +26°C° 0.5 mm 4 mps 747 mmHg 71%
    19:00 +25°C° 0.5 mm 4 mps 748 mmHg 76%
    20:00 +23°C° 0.5 mm 4 mps 748 mmHg 81%
    21:00 +22°C° 0.5 mm 3 mps 748 mmHg 86%
    22:00 +21°C° 0.3 mm 4 mps 748 mmHg 87%
    23:00 +21°C° 0.3 mm 4 mps 748 mmHg 88%
    Show more